Theta_e
362 366 366 359 339 329 321 325 332 332 333 341 343 337 338 341 336 329 354 354 357 358 361 365 369 366 365 366 365 364 361 361 360 360 360 360 360 359 358 362 361 360 358 357 357 357 357 358 357
363 362 361 350 327 320 320 328 328 334 340 343 342 341 339 336 345 346 350 357 357 357 360 362 368 368 366 365 364 363 363 361 360 360 360 360 359 361 362 360 360 358 357 357 357 359 359 360 360
363 363 351 334 325 318 319 329 332 336 339 339 339 344 342 336 345 348 354 356 357 357 359 365 370 370 366 365 364 364 363 361 360 360 359 358 360 359 359 358 358 357 356 357 358 359 360 361 362
359 358 351 326 322 327 326 332 334 335 337 340 342 337 344 348 347 351 356 357 354 360 363 366 369 367 367 367 366 364 363 361 360 359 359 358 362 358 357 357 356 356 356 358 360 361 362 363 364
359 347 329 323 323 328 332 334 335 333 336 337 340 335 338 348 353 354 355 354 354 359 361 365 369 369 367 366 366 364 364 362 359 358 359 359 358 357 356 355 357 357 360 362 363 364 364 364 364
346 342 322 319 322 329 333 335 334 335 338 339 340 339 342 352 349 351 354 353 356 361 360 363 366 368 367 366 366 365 363 360 358 359 358 358 356 356 356 356 359 360 363 365 367 367 367 367 367
338 322 317 325 323 325 330 336 333 334 335 338 344 337 343 346 352 353 352 354 356 362 360 362 367 367 367 365 363 362 360 360 359 359 357 355 355 356 356 356 356 361 365 367 367 368 368 369 368
343 332 322 324 322 322 333 334 336 335 334 344 345 337 339 345 350 351 354 354 355 358 359 363 364 369 367 364 361 360 360 361 360 357 358 359 358 360 360 360 360 364 365 365 366 366 368 369 368
343 327 319 321 321 326 334 331 338 341 338 341 342 344 350 352 350 350 349 351 354 357 358 362 360 364 367 363 362 363 361 360 362 360 361 361 361 362 361 362 358 363 364 365 365 366 370 373 371
334 324 323 328 329 328 332 333 335 335 335 338 340 349 352 351 348 346 346 347 349 352 356 358 360 361 365 360 367 362 361 360 362 362 362 362 360 363 358 361 362 364 365 366 368 371 374 370 359
332 324 329 329 332 333 332 334 336 333 329 338 338 344 349 349 347 345 347 348 349 352 355 354 354 362 361 364 363 364 365 363 360 361 362 361 361 360 359 360 359 360 368 362 360 359 354 359 363
327 330 332 332 333 332 332 336 334 335 332 337 344 346 348 348 348 346 346 349 350 352 353 354 353 359 358 355 357 354 357 359 357 356 362 360 358 357 356 355 360 357 357 357 354 352 356 361 362
329 329 332 333 333 333 335 333 333 334 337 341 346 346 346 348 346 348 349 349 350 349 353 352 353 360 358 358 353 352 354 352 352 355 360 360 358 358 357 355 358 357 354 356 353 354 358 362 362
332 331 330 333 333 334 332 332 334 337 340 341 344 343 346 347 349 350 348 348 349 352 353 357 359 361 359 357 358 352 352 349 353 360 360 361 358 357 355 358 358 358 355 357 354 356 363 362 359
334 328 330 332 333 332 335 328 329 339 340 339 340 342 344 346 348 349 351 348 350 353 354 356 358 360 360 360 359 353 350 349 349 360 363 360 360 362 364 358 352 355 357 358 355 358 363 367 359
328 327 321 329 331 334 332 323 333 339 338 338 340 341 342 345 347 349 350 352 352 352 354 356 357 358 358 359 360 353 353 351 351 356 358 361 360 364 361 355 355 355 358 353 352 358 360 362 362
326 316 321 325 331 330 330 325 332 338 338 337 339 340 341 344 347 349 350 352 353 354 355 356 358 356 359 361 359 356 357 350 354 356 355 361 364 359 363 359 358 359 354 354 352 358 364 359 361
318 319 322 321 329 329 327 327 331 335 337 336 339 340 340 341 344 348 350 352 353 356 357 357 358 358 362 363 361 360 356 356 359 359 356 360 360 358 361 358 362 361 355 355 355 359 359 364 357
324 323 321 325 330 327 326 327 330 333 335 335 337 339 341 341 346 349 350 351 352 354 356 358 357 361 359 356 355 355 352 354 353 358 357 358 359 360 363 359 361 360 358 359 359 354 358 357 361
325 322 321 325 328 327 326 325 329 331 333 335 336 338 341 342 343 347 350 351 351 353 355 357 359 362 360 358 358 359 356 354 353 357 358 357 357 360 361 364 362 366 355 360 359 358 356 364 362
324 320 320 322 326 329 327 324 326 330 333 334 336 339 341 343 342 345 347 350 351 353 355 357 359 361 360 364 359 358 359 356 352 353 354 356 356 356 360 361 360 361 357 352 357 355 357 359 362
319 324 322 322 321 315 327 312 322 327 327 331 333 336 338 341 345 346 347 349 349 352 357 359 361 361 361 364 360 359 354 350 352 353 356 355 357 357 357 358 359 359 354 360 355 352 355 362 360
322 325 323 321 320 319 318 316 319 326 322 327 330 333 337 340 344 344 347 349 351 353 356 357 362 364 365 362 367 357 356 354 354 354 355 356 359 357 356 357 356 355 355 362 358 356 359 367 367
326 324 323 322 319 311 315 316 317 318 323 325 328 333 335 339 343 346 350 351 351 353 356 357 361 366 366 364 362 362 358 358 355 354 360 353 355 353 357 355 356 360 359 358 356 359 357 367 366
324 319 311 309 310 310 320 315 317 323 325 326 327 332 336 338 340 344 346 349 351 352 355 357 358 361 364 363 362 361 359 360 358 361 355 359 352 351 357 357 357 356 360 360 361 361 359 367 363
320 319 311 304 306 308 318 311 314 325 327 328 329 333 335 337 339 340 344 348 350 353 355 357 358 363 362 363 362 363 361 357 355 356 356 356 354 357 362 359 356 355 356 358 359 356 357 366 367
319 315 321 315 315 309 313 317 324 325 326 326 326 330 334 336 339 340 343 347 350 354 356 357 358 361 362 361 364 362 360 359 358 359 359 363 363 361 362 361 361 358 357 360 364 357 364 367 366
321 325 312 314 305 304 310 312 316 319 321 323 323 325 332 338 340 342 344 346 350 354 356 357 359 361 362 361 362 361 360 360 360 361 360 359 362 362 358 361 360 360 363 364 366 367 366 364 363
318 317 319 319 314 306 307 309 319 322 322 322 323 326 328 335 340 342 344 347 350 353 354 357 358 360 360 361 361 361 360 358 359 358 360 360 364 364 366 363 362 362 361 362 365 364 363 361 357
319 318 317 311 310 312 310 311 323 323 323 323 323 326 330 334 339 343 345 346 348 351 353 356 357 358 360 362 365 360 361 359 355 357 359 362 361 362 361 364 363 363 362 364 362 357 361 358 354
Wind_Speed
12 14 6 5 5 1 10 12 10 10 9 11 9 3 17 17 12 14 18 13 19 19 17 15 14 16 14 14 13 13 12 11 9 8 8 8 8 8 8 7 8 8 9 9 9 9 8 6 5
12 3 7 4 3 8 9 8 12 15 13 9 8 7 14 11 10 20 19 19 18 20 17 16 14 15 14 14 13 11 11 10 9 8 7 7 7 7 9 9 8 8 8 8 8 7 7 7 7
13 6 7 10 4 5 7 12 11 10 6 3 6 9 11 7 20 16 21 20 20 17 15 16 14 14 13 13 12 11 10 9 8 8 7 6 7 7 8 7 7 7 7 6 6 6 7 7 8
6 7 7 2 13 13 12 12 10 9 6 2 11 13 10 13 8 17 21 20 19 18 16 16 15 15 13 13 12 11 10 8 6 7 6 4 6 7 7 7 6 6 6 6 7 8 8 9 9
10 7 2 7 11 14 12 10 5 9 6 5 13 11 11 5 10 20 17 19 19 16 16 15 14 14 13 12 11 10 9 7 6 5 5 5 5 5 5 5 6 6 6 7 8 9 10 10 10
8 3 3 5 11 12 10 8 10 10 10 9 20 17 10 11 19 18 17 20 16 17 14 14 12 13 12 11 10 9 9 6 5 4 4 4 3 3 4 4 5 6 7 9 10 11 11 12 11
8 9 7 13 11 10 10 5 12 10 9 12 10 15 13 17 18 18 15 16 17 18 12 9 12 12 13 11 10 9 8 7 4 3 2 1 0 1 2 2 3 6 8 10 11 12 12 13 10
11 3 5 7 11 10 9 14 4 12 13 7 4 7 15 14 16 15 14 16 14 16 14 13 11 8 10 10 10 8 7 6 5 3 2 5 6 7 8 5 3 5 8 9 9 11 13 12 9
8 5 6 9 7 11 7 11 11 3 9 7 1 9 23 22 19 17 14 12 13 10 14 14 8 7 6 5 9 9 6 6 7 8 7 9 7 7 7 7 0 6 7 8 9 12 14 13 11
6 2 10 6 9 12 6 10 6 7 8 10 6 18 22 22 16 20 15 15 15 15 11 13 11 8 3 7 6 1 5 5 6 4 1 5 2 0 5 4 10 9 9 10 12 13 13 14 4
5 9 4 6 12 7 10 10 1 4 6 11 13 16 20 20 15 16 18 16 16 17 14 14 14 11 9 6 4 1 2 5 2 2 7 4 6 4 5 4 5 7 10 7 6 4 9 8 12
2 6 6 8 3 7 7 5 11 9 8 5 15 18 18 19 18 17 17 17 18 18 16 17 16 14 12 8 2 4 2 4 4 5 5 4 1 6 5 4 4 7 3 5 8 7 8 7 9
4 6 2 3 5 4 6 6 9 10 8 9 16 17 16 19 18 17 18 15 12 15 15 12 15 14 11 9 7 5 5 4 6 5 6 3 3 2 3 5 2 6 8 8 8 7 8 6 8
4 2 0 8 4 5 6 5 4 11 10 13 15 16 15 15 18 20 16 17 17 16 16 13 14 13 13 11 10 6 5 8 4 5 6 4 8 1 5 1 8 4 6 7 6 5 5 3 3
5 8 10 1 5 4 9 6 3 13 12 13 14 13 14 14 13 14 19 16 19 16 14 18 12 12 11 13 10 8 6 9 7 1 6 5 6 3 9 1 6 6 3 5 6 5 4 2 3
11 5 0 10 3 7 9 2 7 12 11 12 14 13 14 16 16 13 12 15 18 12 14 15 12 15 13 12 10 8 6 8 7 5 7 8 5 4 5 2 1 5 6 6 6 7 6 4 3
6 3 3 7 3 2 5 5 7 11 12 14 15 14 14 15 16 15 15 13 17 13 14 14 14 13 14 10 8 11 11 8 7 6 5 5 4 6 7 4 4 4 3 4 6 6 6 4 2
9 2 5 2 7 6 8 11 9 13 11 13 15 16 15 17 17 17 16 15 13 18 19 15 12 13 13 10 8 6 6 7 4 3 4 3 6 5 5 5 2 7 2 5 6 5 6 4 2
13 5 8 2 4 5 9 11 10 7 13 13 14 17 19 17 17 17 16 17 14 15 16 17 15 13 11 10 10 9 9 9 7 3 6 5 6 4 6 2 7 5 0 4 5 6 5 6 2
9 10 7 4 4 8 11 13 13 12 14 15 15 16 19 20 20 19 18 18 17 17 16 15 16 14 11 10 9 8 8 8 8 5 7 8 7 6 7 5 5 1 6 2 2 4 3 1 1
12 10 2 10 3 12 9 19 16 14 12 10 13 16 19 21 20 21 20 20 18 18 17 16 16 16 15 13 9 8 7 7 7 7 5 8 9 9 7 7 6 6 4 4 2 3 5 1 4
10 4 5 5 10 6 8 11 9 9 6 9 10 16 17 22 24 20 21 20 19 17 18 17 17 16 16 14 10 10 10 10 10 9 7 7 11 10 10 9 7 6 7 7 5 2 6 1 4
5 3 8 3 11 16 14 8 3 10 11 5 4 9 12 18 26 24 23 22 21 20 19 16 17 15 14 15 12 11 13 10 8 6 8 8 9 10 10 9 7 7 7 7 5 6 6 3 4
12 2 11 14 13 13 4 8 6 11 7 2 2 5 5 12 19 22 25 23 20 21 18 18 19 16 15 14 16 14 14 13 5 8 5 8 7 9 10 9 8 7 8 8 7 7 7 4 4
12 14 13 12 10 3 8 8 10 3 8 4 5 5 5 5 14 19 21 22 21 22 20 18 16 19 18 16 14 16 15 12 10 8 8 8 8 9 13 11 9 7 8 9 7 6 7 3 4
15 20 14 3 13 9 9 5 7 8 2 4 4 6 3 5 11 16 21 21 24 21 20 19 21 18 19 18 16 13 12 8 9 11 9 8 9 6 7 11 9 7 8 10 9 8 8 3 4
19 19 16 15 19 9 5 8 22 6 7 4 4 3 7 3 7 10 15 17 18 19 20 21 20 19 19 19 14 13 13 14 9 10 10 8 9 4 5 8 9 8 8 8 9 8 3 4 4
12 11 12 8 10 12 6 8 3 12 6 4 4 7 7 9 7 11 13 18 18 18 21 23 20 19 19 18 16 14 15 14 11 8 10 11 10 8 5 8 9 10 7 8 8 4 5 5 7
13 13 13 2 11 3 14 3 5 3 4 8 6 6 8 10 11 10 14 16 18 19 21 18 19 19 18 17 17 15 14 14 13 9 10 11 10 9 8 8 8 7 8 6 6 6 5 6 2
21 19 19 14 17 10 13 5 17 7 5 8 9 8 7 3 9 12 13 15 17 19 19 20 18 19 18 16 13 14 12 12 14 11 11 11 12 10 8 9 9 8 8 5 5 5 6 5 5
Wind_Direction
229 218 253 256 274 141 80 100 93 106 92 80 70 56 73 36 29 95 126 142 124 123 128 134 125 129 127 126 118 116 118 117 111 104 94 86 73 59 48 45 46 42 32 23 21 24 18 9 360
278 275 228 288 330 97 57 73 67 64 77 99 84 88 57 55 91 123 118 139 138 123 141 134 127 129 134 130 126 122 120 118 113 105 92 77 65 51 34 28 27 28 22 22 22 19 5 352 346
260 275 270 122 96 66 91 79 85 83 68 13 100 60 48 114 115 128 128 141 124 123 120 121 129 130 133 132 131 128 124 123 116 107 96 75 52 43 29 23 17 16 20 14 9 358 349 339 339
270 203 236 357 118 82 99 81 93 116 104 353 92 84 90 93 101 131 145 142 131 136 132 131 133 135 135 137 133 128 125 121 110 98 91 61 52 35 26 13 8 14 5 358 347 339 335 331 329
236 250 142 111 82 88 85 71 60 81 66 119 93 106 106 107 166 135 146 128 119 119 127 139 139 136 136 134 136 137 132 123 112 93 76 56 37 25 22 8 358 356 349 343 336 333 329 322 317
238 297 67 144 107 100 96 91 85 76 85 128 105 120 115 149 138 149 158 122 132 119 131 131 139 139 140 141 136 122 117 120 111 87 56 44 37 21 1 2 348 342 333 333 330 329 323 314 311
249 117 249 114 85 116 93 75 72 96 102 100 112 105 128 158 152 154 147 137 130 126 146 140 144 144 139 131 129 133 137 134 121 104 59 335 227 262 269 295 319 324 325 324 325 322 309 297 303
294 157 102 46 136 102 106 81 60 62 70 105 91 138 153 158 155 116 133 149 132 144 136 157 144 157 152 145 143 147 153 147 155 145 201 249 233 214 222 211 231 322 319 316 315 299 288 281 292
260 244 112 100 109 114 135 110 64 46 117 63 45 124 146 157 145 133 157 124 151 141 154 132 158 146 127 157 147 155 156 193 188 188 210 240 239 206 168 91 216 270 272 271 259 261 272 269 248
238 228 96 87 100 122 123 100 109 139 140 122 102 106 144 150 154 151 154 145 162 161 148 155 150 165 162 138 147 238 163 249 201 110 226 246 221 153 266 161 199 229 235 250 251 258 255 271 164
48 90 80 112 57 108 109 114 74 100 31 123 136 134 147 150 165 163 161 170 169 169 155 171 164 153 168 130 116 52 14 292 30 204 257 92 280 226 232 222 208 180 205 232 227 221 12 353 37
350 49 34 85 230 115 100 70 106 47 34 78 135 145 156 160 178 173 173 180 169 168 162 176 175 167 174 164 164 145 114 294 295 185 230 237 47 343 291 188 359 118 292 341 20 19 351 4 209
285 123 201 118 161 128 113 112 53 89 87 115 138 153 167 171 178 182 164 178 176 174 173 154 182 169 169 175 172 189 183 214 258 272 199 2 320 235 78 336 15 20 356 5 13 5 22 5 358
51 292 151 145 163 132 254 100 236 114 124 133 149 161 171 189 174 172 171 171 177 188 170 178 188 158 184 189 185 192 180 248 251 302 2 197 286 89 306 189 8 79 24 333 1 329 67 7 47
275 197 162 132 132 108 287 195 189 129 144 149 162 173 172 189 184 180 176 184 172 184 174 167 183 164 198 197 185 194 208 241 236 234 291 271 289 177 300 60 316 34 329 309 344 25 14 161 42
228 257 114 124 177 113 267 263 151 137 169 167 175 182 181 179 186 182 198 194 159 189 158 167 181 180 197 208 180 194 196 243 220 185 229 240 238 300 250 273 65 35 294 52 356 15 70 339 63
174 296 204 161 179 343 239 298 109 158 186 180 182 188 185 181 187 185 182 203 162 151 161 168 167 193 190 202 204 205 169 212 243 196 193 224 261 230 276 334 29 283 315 70 6 26 53 316 77
319 145 299 212 136 229 249 240 240 180 206 212 190 183 197 184 190 181 187 192 189 173 171 189 177 181 193 190 209 225 198 208 236 185 210 192 250 251 264 349 55 287 23 28 11 348 8 326 121
244 258 238 199 93 271 265 271 285 281 189 214 218 194 190 203 184 178 185 179 188 190 181 184 180 182 185 190 195 205 205 203 219 251 180 239 243 290 299 76 284 273 246 2 333 335 67 310 54
230 239 283 191 106 267 276 286 277 239 230 213 217 214 195 190 185 185 185 181 187 184 188 191 194 173 188 199 201 211 210 214 213 209 172 210 247 233 244 293 284 67 319 149 343 325 355 266 225
218 247 188 307 258 243 268 265 222 233 230 250 210 225 201 194 202 187 190 187 184 181 189 189 197 183 191 207 201 210 222 221 219 227 204 198 225 230 233 270 285 305 296 305 344 332 325 291 275
229 144 245 260 268 287 203 298 261 152 209 196 227 206 225 192 181 200 195 193 183 191 187 186 193 196 192 200 193 201 217 218 215 210 211 202 210 221 223 225 250 265 294 339 278 256 319 57 286
112 211 270 275 271 265 260 244 88 162 218 155 108 343 212 204 182 191 189 200 191 199 186 187 187 197 197 197 216 196 219 227 212 207 205 206 181 217 220 217 233 258 255 256 254 290 315 325 296
249 258 249 234 242 256 224 253 301 66 300 358 68 83 305 208 193 186 186 194 195 204 179 192 185 191 198 195 207 202 210 239 210 211 189 208 192 191 215 214 220 235 258 250 258 254 266 263 268
211 245 242 220 244 223 204 230 268 242 41 354 340 94 157 217 203 191 194 184 195 207 186 186 181 193 195 192 198 214 214 220 225 226 214 215 230 217 178 194 206 221 243 259 253 251 265 252 239
215 238 257 261 228 113 245 264 91 296 21 75 208 160 89 225 221 201 189 195 188 186 192 187 192 193 196 197 200 205 216 220 217 217 210 220 239 254 144 174 191 210 246 233 234 243 239 224 216
202 215 263 287 229 254 341 49 302 135 161 92 55 136 151 189 210 199 186 193 185 179 195 199 196 193 199 199 198 190 199 229 207 210 208 224 235 224 164 175 189 200 223 228 227 229 248 232 217
254 275 230 229 275 282 258 271 120 208 86 26 4 351 154 146 200 190 192 187 186 190 192 203 194 196 199 200 195 198 195 206 229 196 214 211 225 241 216 198 203 192 212 235 222 219 236 213 230
199 247 259 186 275 302 255 86 117 320 202 40 335 3 339 145 174 199 191 186 189 191 189 192 195 193 198 203 191 203 200 197 208 189 207 209 212 223 226 195 207 203 204 225 235 217 217 204 144
253 210 237 249 233 259 287 216 202 179 33 25 360 37 13 352 169 184 196 190 190 187 189 190 194 195 199 191 193 194 209 210 197 202 205 207 204 205 221 203 193 207 201 189 209 228 196 184 185